Powrót do katalogu

DELTA 1 DEB

LostLEO
NORAD 42093·DEBRIS·🇺🇸 United States

Wystrzelony Dec 15, 1968 z Vandenberg Space Force Base

Loading…

Następne Przeloty (najbliższe 24 godziny)

TLE

NieaktualneSource: Space-Track

Epoka: Aug 11, 2026, 05:17 UTC

1 42093U 68114V   26223.22015966  .00000856  00000-0  31096-2 0  9994
2 42093 102.5052  37.1079 0123702  71.4340 290.0145 12.95634300 48967

Śledź DELTA 1 DEB w czasie rzeczywistym z AllMySat

Download on the App Store